This is the latest recevied weather packets stored in our database for station/object KG4GJX. If no packets are shown the sender has not sent any weather packets the latest 10 day(s).
| Time | Temp. | Humidity | Pressure | Rain* | Wind** | Luminosity | Snow |
|---|---|---|---|---|---|---|---|
| 1777902098 | 16.11° C | 70% | 1016.9 hPa | 0 mm | - | - | - |
| 1777901436 | 15° C | 73% | 1017.2 hPa | 0 mm | - | - | - |
| 1777900773 | 14.44° C | 77% | 1017.2 hPa | 0 mm | - | - | - |
| 1777900111 | 13.33° C | 83% | 1017.2 hPa | 0 mm | - | - | - |
| 1777899449 | 12.22° C | 95% | 1017.2 hPa | 0 mm | - | - | - |
| 1777898786 | 11.11° C | 100% | 1017.2 hPa | 0 mm | - | - | - |
| 1777898124 | 10° C | 100% | 1016.9 hPa | 0 mm | - | - | - |
| 1777897461 | 8.89° C | 100% | 1016.9 hPa | 0 mm | - | - | - |
| 1777896799 | 7.22° C | 100% | 1016.9 hPa | 0 mm | - | - | - |
| 1777896136 | 6.11° C | 100% | 1016.5 hPa | 0 mm | - | - | - |
| 1777895474 | 5.56° C | 100% | 1016.5 hPa | 0 mm | - | - | - |
| 1777894812 | 5° C | 100% | 1016.5 hPa | 0 mm | - | - | - |
| 1777893489 | 5° C | 100% | 1016.2 hPa | 0 mm | - | - | - |
| 1777892827 | 5° C | 100% | 1015.9 hPa | 0 mm | - | - | - |
| 1777888204 | 5° C | 100% | 1016.2 hPa | 0 mm | - | - | - |
| 1777886882 | 5.56° C | 100% | 1016.2 hPa | 0 mm | - | - | - |
| 1777885560 | 5.56° C | 100% | 1016.5 hPa | 0 mm | - | - | - |
| 1777883577 | 6.11° C | 100% | 1016.5 hPa | 0 mm | - | - | - |
| 1777882255 | 6.67° C | 100% | 1016.5 hPa | 0 mm | - | - | - |
| 1777878953 | 6.67° C | 100% | 1016.2 hPa | 0 mm | - | - | - |
| 1777878290 | 6.67° C | 100% | 1016.5 hPa | 0 mm | - | - | - |
| 1777877628 | 7.22° C | 100% | 1016.9 hPa | 0 mm | - | - | - |
| 1777874325 | 6.67° C | 100% | 1016.9 hPa | 0 mm | - | - | - |
| 1777871683 | 7.22° C | 100% | 1017.2 hPa | 0 mm | - | - | - |
| 1777871021 | 7.78° C | 100% | 1017.2 hPa | 0 mm | - | - | - |
* Rain latest hour (hover to see other rain measurements)
** Current wind speed in m/s (hover to see current wind gust speed)